Weather in Varash

Ukraine / Rovno District     51°20′53″N   25°50′57″E
temp.,
°C
wind,
m/s
gust,
m/s
humid.,
%
clouds,
%
prec.,
mm/h
press.,
hPa
HPBL,
m
8 august, mon
mon800:00+14nne36723 0.0 1022101
03:00+12nne3476100 0.0 102352
06:00+12nne3379100 0.0 102354
09:00+17ne34635 0.0 1023342
12:00+22ne324686 0.0 10231366
15:00+24nne323891 0.0 10221817
18:00+23nne433883 0.0 10221788
21:00+19ne335187 0.0 102238
9 august, tue
tue900:00+15nne4870100 0.0 1023143
03:00+14nne3775100 0.0 1024146
06:00+13nne3679100 0.0 1024121
09:00+18nne356295 0.0 1024364
12:00+23ne444430 0.0 10241944
15:00+24ne3337100 0.0 10232370
18:00+21ne3650100 0.0 1022213
21:00+19ne2260100 0.0 102322
10 august, wed
wed1000:00+18n2262100 0.0 102439
03:00+17n366398 0.0 1023163
06:00+16n4770100 0.0 1023214
09:00+17n3671100 0.0 1024215
12:00+19nne4562100 0.0 1024389
15:00+23n56445 0.0 10231894
18:00+20nne4854100 0.1 1022290
21:00+17n347036 0.1 102355
11 august, thu
thu1100:00+17n3567100 0.0 102390
03:00+15nne3776100 0.0 1022114
06:00+16nne41073100 0.0 1022260
09:00+17ne4866100 0.0 1022393
12:00+15nnw4784100 1.1 1022238
15:00+22ne3759100 1.2 1021809
18:00+26ene5747100 0.0 10201566
21:00+21ne51168100 0.4 1020242
12 august, fri
fri1200:00+19ne613705 0.0 1022322
03:00+18ne5127849 0.0 1022251
06:00+16ene39927 1.3 1022205
09:00+21ene58697 1.6 1023406
12:00+27ene674991 0.0 10221000
15:00+29ene5741100 0.0 10201523
18:00+30ene674078 0.0 10192081
21:00+20ene5137997 1.0 1020208